| time (UTC) | temp F | wind direction | speed knots | gust knots | rain 1hr in | rain 24hr in | rain mn in | humidity % | barometer mb |
| 20260506231520 | 58 | 238 | 0.0 | 3.5 | 0.11 | 0.54 | 0.54 | 96 | 1005.0 |
| 20260506230022 | 58 | 313 | 0.0 | 1.7 | 0.11 | 0.52 | 0.52 | 96 | 1005.1 |
| 20260506224507 | 58 | 313 | 0.9 | 3.5 | 0.11 | 0.52 | 0.52 | 96 | 1005.0 |
| 20260506223008 | 58 | 18 | 0.9 | 2.6 | 0.04 | 0.46 | 0.46 | 97 | 1005.0 |
| 20260506221512 | 59 | 150 | 0.0 | 1.7 | 0.02 | 0.43 | 0.43 | 97 | 1005.0 |
| 20260506220018 | 59 | 150 | 0.0 | 1.7 | 0.03 | 0.44 | 0.42 | 97 | 1005.1 |
| 20260506214523 | 59 | 124 | 0.0 | 1.7 | 0.08 | 0.45 | 0.42 | 97 | 1005.1 |
| 20260506213004 | 59 | 247 | 0.9 | 2.6 | 0.14 | 0.48 | 0.42 | 97 | 1005.1 |
| 20260506211508 | 59 | 183 | 0.9 | 4.3 | 0.16 | 0.48 | 0.41 | 96 | 1005.3 |
| 20260506210030 | 58 | 174 | 0.0 | 1.7 | 0.15 | 0.46 | 0.39 | 96 | 1005.2 |
| 20260506204523 | 58 | 174 | 0.0 | 0.9 | 0.11 | 0.41 | 0.34 | 96 | 1005.4 |
| 20260506203003 | 58 | 171 | 0.0 | 2.6 | 0.08 | 0.35 | 0.28 | 96 | 1005.5 |
| 20260506201510 | 59 | 185 | 0.0 | 2.6 | 0.07 | 0.32 | 0.25 | 96 | 1005.6 |
| 20260506200012 | 59 | 84 | 0.9 | 2.6 | 0.08 | 0.31 | 0.24 | 96 | 1005.8 |
| 20260506194518 | 59 | 183 | 0.9 | 1.7 | 0.08 | 0.30 | 0.23 | 96 | 1006.1 |
| 20260506193036 | 59 | 249 | 0.0 | 2.6 | 0.06 | 0.27 | 0.20 | 96 | 1006.2 |
| 20260506191507 | 59 | 240 | 0.0 | 2.6 | 0.05 | 0.25 | 0.18 | 95 | 1006.2 |
| 20260506190010 | 59 | 216 | 0.9 | 5.2 | 0.05 | 0.23 | 0.16 | 95 | 1006.5 |
| 20260506184516 | 59 | 161 | 0.9 | 7.0 | 0.06 | 0.22 | 0.15 | 95 | 1006.5 |
| 20260506183021 | 59 | 175 | 0.9 | 4.3 | 0.08 | 0.21 | 0.14 | 94 | 1006.8 |
| 20260506181536 | 59 | 194 | 0.9 | 3.5 | 0.09 | 0.20 | 0.13 | 94 | 1007.1 |
| 20260506180010 | 60 | 188 | 0.9 | 2.6 | 0.09 | 0.18 | 0.11 | 94 | 1007.3 |
| 20260506174510 | 60 | 128 | 0.9 | 2.6 | 0.09 | 0.16 | 0.09 | 93 | 1007.3 |
| 20260506173024 | 60 | 11 | 0.0 | 1.7 | 0.06 | 0.13 | 0.06 | 91 | 1007.4 |
| 20260506171528 | 61 | 11 | 0.0 | 1.7 | 0.04 | 0.11 | 0.04 | 89 | 1007.4 |
| 20260506170026 | 61 | 146 | 0.0 | 1.7 | 0.02 | 0.09 | 0.02 | 89 | 1007.6 |
| 20260506164511 | 62 | 250 | 0.0 | 0.9 | 0.00 | 0.07 | 0.00 | 87 | 1007.5 |
| 20260506163017 | 63 | 250 | 0.0 | 1.7 | 0.00 | 0.07 | 0.00 | 83 | 1007.6 |
| 20260506161521 | 62 | 250 | 0.0 | 2.6 | 0.00 | 0.07 | 0.00 | 83 | 1007.7 |
| 20260506160024 | 62 | 212 | 0.0 | 1.7 | 0.00 | 0.07 | 0.00 | 83 | 1007.9 |
| 20260506154529 | 62 | 93 | 0.0 | 1.7 | 0.00 | 0.07 | 0.00 | 83 | 1008.6 |
| 20260506153021 | 62 | 93 | 0.0 | 0.9 | 0.00 | 0.07 | 0.00 | 82 | 1009.0 |
| 20260506151519 | 61 | 86 | 0.9 | 3.5 | 0.00 | 0.07 | 0.00 | 79 | 1008.7 |
| 20260506150022 | 61 | 138 | 0.9 | 3.5 | 0.00 | 0.07 | 0.00 | 79 | 1008.7 |
| 20260506144526 | 61 | 160 | 0.9 | 3.5 | 0.00 | 0.07 | 0.00 | 80 | 1008.7 |
| 20260506143029 | 61 | 160 | 0.0 | 1.7 | 0.00 | 0.07 | 0.00 | 80 | 1008.9 |
| 20260506141517 | 60 | 226 | 0.0 | 1.7 | 0.00 | 0.07 | 0.00 | 80 | 1008.8 |
| 20260506140023 | 60 | 221 | 0.0 | 1.7 | 0.00 | 0.07 | 0.00 | 81 | 1008.8 |
| 20260506134523 | 59 | 140 | 0.0 | 1.7 | 0.00 | 0.07 | 0.00 | 81 | 1008.8 |
| 20260506133025 | 59 | 114 | 0.0 | 0.9 | 0.00 | 0.07 | 0.00 | 81 | 1009.1 |
| 20260506131528 | 59 | 114 | 0.0 | 1.7 | 0.00 | 0.07 | 0.00 | 82 | 1009.4 |
| 20260506130026 | 58 | 114 | 0.0 | 1.7 | 0.00 | 0.07 | 0.00 | 82 | 1009.3 |
| 20260506124522 | 58 | 114 | 0.0 | 1.7 | 0.00 | 0.07 | 0.00 | 83 | 1009.1 |
| 20260506123026 | 58 | 114 | 0.0 | 1.7 | 0.00 | 0.07 | 0.00 | 82 | 1008.9 |
| 20260506121525 | 58 | 114 | 0.0 | 1.7 | 0.00 | 0.07 | 0.00 | 83 | 1009.4 |
| 20260506120018 | 57 | 114 | 0.0 | 0.9 | 0.00 | 0.07 | 0.00 | 83 | 1009.5 |
| 20260506114503 | 57 | 114 | 0.0 | 1.7 | 0.00 | 0.07 | 0.00 | 84 | 1009.5 |
| 20260506113006 | 56 | 114 | 0.0 | 1.7 | 0.00 | 0.07 | 0.00 | 86 | 1009.3 |
| 20260506111507 | 55 | 38 | 0.0 | 1.7 | 0.00 | 0.07 | 0.00 | 89 | 1009.5 |
| 20260506110015 | 55 | 38 | 0.0 | 0.9 | 0.00 | 0.07 | 0.00 | 89 | 1009.3 |
| 20260506104540 | 55 | 38 | 0.0 | 0.9 | 0.00 | 0.07 | 0.00 | 89 | 1009.4 |
| 20260506103007 | 54 | 38 | 0.0 | 0.9 | 0.00 | 0.07 | 0.00 | 89 | 1009.7 |
| 20260506101508 | 55 | 38 | 0.0 | 0.9 | 0.00 | 0.07 | 0.00 | 87 | 1009.6 |
| 20260506100009 | 55 | 38 | 0.0 | 1.7 | 0.00 | 0.07 | 0.00 | 86 | 1009.2 |
| 20260506094514 | 55 | 38 | 0.0 | 1.7 | 0.00 | 0.07 | 0.00 | 85 | 1009.0 |
| 20260506093020 | 56 | 38 | 1.7 | 2.6 | 0.00 | 0.07 | 0.00 | 85 | 1009.0 |
| 20260506091506 | 56 | 38 | 0.0 | 2.6 | 0.00 | 0.07 | 0.00 | 85 | 1009.4 |
| 20260506090007 | 56 | 38 | 0.9 | 2.6 | 0.00 | 0.07 | 0.00 | 84 | 1009.2 |
| 20260506084514 | 56 | 38 | 0.9 | 2.6 | 0.00 | 0.07 | 0.00 | 84 | 1009.3 |
| 20260506083034 | 57 | 38 | 0.0 | 1.7 | 0.00 | 0.07 | 0.00 | 83 | 1009.4 |
| 20260506081524 | 57 | 38 | 0.0 | 2.6 | 0.00 | 0.07 | 0.00 | 82 | 1009.2 |
| 20260506073018 | 59 | 283 | 0.0 | 1.7 | 0.00 | 0.07 | 0.00 | 79 | 1009.4 |
| 20260506071522 | 60 | 283 | 0.0 | 1.7 | 0.00 | 0.07 | 0.00 | 78 | 1009.3 |
| 20260506061520 | 61 | 283 | 0.0 | 1.7 | 0.00 | 0.07 | 0.00 | 77 | 1009.1 |
| 20260506044532 | 60 | 69 | 0.0 | 1.7 | 0.00 | 0.07 | 0.00 | 82 | 1009.2 |
| 20260506043029 | 60 | 69 | 0.9 | 1.7 | 0.00 | 0.07 | 0.00 | 81 | 1009.1 |
| 20260506041513 | 61 | 69 | 0.0 | 1.7 | 0.00 | 0.07 | 0.00 | 81 | 1008.8 |
| 20260506040028 | 60 | 69 | 0.9 | 1.7 | 0.00 | 0.07 | 0.00 | 81 | 1009.0 |
| 20260506034522 | 60 | 69 | 0.0 | 1.7 | 0.00 | 0.07 | 0.07 | 81 | 1009.0 |
| 20260506033028 | 60 | 69 | 1.7 | 2.6 | 0.00 | 0.07 | 0.07 | 83 | 1009.1 |
| 20260506031526 | 60 | 69 | 1.7 | 2.6 | 0.00 | 0.07 | 0.07 | 82 | 1009.0 |
| 20260506030013 | 61 | 114 | 0.0 | 0.9 | 0.00 | 0.07 | 0.07 | 80 | 1009.2 |
| 20260506024533 | 61 | 114 | 0.0 | 3.5 | 0.00 | 0.07 | 0.07 | 79 | 1009.1 |
| 20260506023024 | 61 | 44 | 0.0 | 1.7 | 0.00 | 0.07 | 0.07 | 77 | 1009.1 |
| 20260506021542 | 61 | 44 | 0.0 | 2.6 | 0.00 | 0.07 | 0.07 | 77 | 1009.1 |
| 20260506020028 | 61 | 44 | 0.9 | 1.7 | 0.00 | 0.07 | 0.07 | 76 | 1008.8 |
| 20260506014523 | 61 | 44 | 0.9 | 1.7 | 0.00 | 0.07 | 0.07 | 77 | 1009.2 |
| 20260506013024 | 61 | 44 | 1.7 | 2.6 | 0.00 | 0.07 | 0.07 | 78 | 1009.0 |
| 20260506011515 | 61 | 23 | 0.9 | 1.7 | 0.00 | 0.07 | 0.07 | 78 | 1008.9 |
| 20260506010013 | 61 | 23 | 0.0 | 2.6 | 0.00 | 0.07 | 0.07 | 79 | 1008.8 |
| 20260506004518 | 61 | 23 | 0.0 | 2.6 | 0.00 | 0.07 | 0.07 | 80 | 1008.6 |
| 20260506003020 | 61 | 23 | 0.9 | 1.7 | 0.00 | 0.07 | 0.07 | 79 | 1008.5 |
| 20260506001504 | 62 | 23 | 0.0 | 1.7 | 0.00 | 0.07 | 0.07 | 79 | 1008.7 |
| 20260506000008 | 62 | 23 | 0.9 | 2.6 | 0.00 | 0.07 | 0.07 | 77 | 1008.3 |
| 20260505234513 | 63 | 13 | 0.9 | 2.6 | 0.00 | 0.07 | 0.07 | 79 | 1008.0 |
| 20260505233016 | 63 | 300 | 0.0 | 4.3 | 0.00 | 0.07 | 0.07 | 76 | 1007.5 |